PY2FGD-13 Weather Reports


time (UTC)temp
F
wind
direction
speed
knots
gust
knots
rain 1hr
in
rain 24hr
in
rain mn
in
humidity
%
barometer
mb
20260505111748 72 0.0 0.0 0.00 0.00 0.00 83 1020.5
20260505110804 71 0.0 0.0 0.00 0.00 0.00 83 1020.5
20260505101748 71 0.0 0.0 0.00 0.00 0.00 82 1020.1
20260505100747 69 0.0 0.0 0.00 0.00 0.00 84 1020.2
20260505095806 71 0.0 0.0 0.00 0.00 0.00 84 1019.9
20260505094749 72 0.0 0.0 0.00 0.00 0.00 85 1019.8
20260505093747 72 0.0 0.0 0.00 0.00 0.00 85 1019.7
20260505092748 72 0.0 0.0 0.00 0.00 0.00 88 1019.6
20260505091747 71 0.0 0.0 0.00 0.00 0.00 85 1019.5
20260505090803 71 0.0 0.0 0.00 0.00 0.00 86 1019.4
20260505085747 72 0.0 0.0 0.00 0.00 0.00 88 1019.2
20260505084747 69 0.0 0.0 0.00 0.00 0.00 89 1019.5
20260505083748 72 0.0 0.0 0.00 0.00 0.00 88 1019.0
20260505082804 71 0.0 0.0 0.00 0.00 0.00 87 1019.1
20260505081747 71 0.0 0.0 0.00 0.00 0.00 81 1019.0
20260505080747 71 0.0 0.0 0.00 0.00 0.00 81 1018.9
20260505075747 71 0.0 0.0 0.00 0.00 0.00 81 1019.0
20260505074748 71 0.0 0.0 0.00 0.00 0.00 82 1018.8
20260505073803 71 0.0 0.0 0.00 0.00 0.00 81 1018.7
20260505072803 71 0.0 0.0 0.00 0.00 0.00 82 1018.8
20260505071747 71 0.0 0.0 0.00 0.00 0.00 81 1018.8
20260505070747 71 0.0 0.0 0.00 0.00 0.00 82 1018.9
20260505065749 71 0.0 0.0 0.00 0.00 0.00 82 1019.0
20260505064803 71 0.0 0.0 0.00 0.00 0.00 82 1019.0
20260505063803 71 0.0 0.0 0.00 0.00 0.00 82 1019.0
20260505062748 71 0.0 0.0 0.00 0.00 0.00 82 1019.1
20260505061747 71 0.0 0.0 0.00 0.00 0.00 82 1019.2
20260505060747 71 0.0 0.0 0.00 0.00 0.00 83 1019.2
20260505055805 71 0.0 0.0 0.00 0.00 0.00 83 1019.2
20260505054748 71 0.0 0.0 0.00 0.00 0.00 83 1019.3
20260505053748 71 0.0 0.0 0.00 0.00 0.00 83 1019.3
20260505052747 71 0.0 0.0 0.00 0.00 0.00 82 1019.5
20260505051747 71 0.0 0.0 0.00 0.00 0.00 80 1019.5
20260505050747 71 0.0 0.0 0.00 0.00 0.00 80 1019.6
20260505041747 72 0.0 0.0 0.00 0.00 0.00 83 1019.8
20260505040747 71 0.0 0.0 0.00 0.00 0.00 83 1019.8
20260505035747 72 0.0 0.0 0.00 0.00 0.00 84 1019.8
20260505034803 72 0.0 0.0 0.00 0.00 0.00 85 1019.8
20260505033804 72 0.0 0.0 0.00 0.00 0.00 86 1019.8
20260505032747 72 0.0 0.0 0.00 0.00 0.00 86 1019.8
20260505031747 72 0.0 0.0 0.00 0.00 0.00 87 1019.8
20260505030747 72 0.0 0.0 0.00 0.00 0.00 87 1019.7
20260505025747 72 0.0 0.0 0.00 0.00 0.00 87 1019.6
20260505024748 72 0.0 0.0 0.00 0.00 0.00 87 1019.5
20260505023749 72 0.0 0.0 0.00 0.00 0.00 86 1019.5
20260505022747 71 0.0 0.0 0.00 0.00 0.00 84 1019.5
20260505021747 72 0.0 0.0 0.00 0.00 0.00 84 1019.5
20260505020747 71 0.0 0.0 0.00 0.00 0.00 86 1019.5
20260505015747 71 0.0 0.0 0.00 0.00 0.00 85 1019.6
20260505014747 71 0.0 0.0 0.00 0.00 0.00 81 1019.5
20260505013802 71 0.0 0.0 0.00 0.00 0.00 82 1019.6
20260505012747 68 0.0 0.0 0.00 0.00 0.00 88 1020.0
20260505011747 68 0.0 0.0 0.00 0.00 0.00 87 1020.0
20260505010803 69 0.0 0.0 0.00 0.00 0.00 86 1019.8
20260505005747 68 0.0 0.0 0.00 0.00 0.00 86 1019.8
20260505004747 69 0.0 0.0 0.00 0.00 0.00 86 1019.7
20260505003747 69 0.0 0.0 0.00 0.00 0.00 86 1019.6
20260505002805 69 0.0 0.0 0.00 0.00 0.00 87 1019.5
20260505001747 69 0.0 0.0 0.00 0.00 0.00 86 1019.5
20260505000747 69 0.0 0.0 0.00 0.00 0.00 86 1019.5
20260504235747 69 0.0 0.0 0.00 0.00 0.00 85 1019.5
20260504234747 69 0.0 0.0 0.00 0.00 0.00 84 1019.5
20260504233747 69 0.0 0.0 0.00 0.00 0.00 84 1019.3
20260504232747 69 0.0 0.0 0.00 0.00 0.00 84 1019.1
20260504231747 70 0.0 0.0 0.00 0.00 0.00 84 1018.8
20260504230804 70 0.0 0.0 0.00 0.00 0.00 84 1018.7
20260504225748 70 0.0 0.0 0.00 0.00 0.00 84 1018.6
20260504224747 70 0.0 0.0 0.00 0.00 0.00 84 1018.3
20260504223802 70 0.0 0.0 0.00 0.00 0.00 84 1018.3
20260504222747 70 0.0 0.0 0.00 0.00 0.00 83 1018.2
20260504221748 72 0.0 0.0 0.00 0.00 0.00 79 1017.8
20260504220803 72 0.0 0.0 0.00 0.00 0.00 79 1017.9
20260504215748 72 0.0 0.0 0.00 0.00 0.00 79 1017.7
20260504214747 72 0.0 0.0 0.00 0.00 0.00 79 1017.4
20260504213803 71 0.0 0.0 0.00 0.00 0.00 82 1017.4
20260504212747 72 0.0 0.0 0.00 0.00 0.00 79 1017.3
20260504211747 72 0.0 0.0 0.00 0.00 0.00 79 1017.3
20260504210746 72 0.0 0.0 0.00 0.00 0.00 79 1017.2
20260504205748 72 0.0 0.0 0.00 0.00 0.00 79 1017.2
20260504204747 72 0.0 0.0 0.00 0.00 0.00 78 1017.1
20260504203802 72 0.0 0.0 0.00 0.00 0.00 79 1016.9
20260504202750 72 0.0 0.0 0.00 0.00 0.00 78 1016.9
20260504201749 72 0.0 0.0 0.00 0.00 0.00 79 1016.7
20260504200746 72 0.0 0.0 0.00 0.00 0.00 79 1016.6
20260504195748 72 0.0 0.0 0.00 0.00 0.00 79 1016.8
20260504194747 72 0.0 0.0 0.00 0.00 0.00 80 1016.9
20260504193803 72 0.0 0.0 0.00 0.00 0.00 80 1016.8
20260504192746 72 0.0 0.0 0.00 0.00 0.00 81 1016.9
20260504191802 72 0.0 0.0 0.00 0.00 0.00 80 1016.9
20260504190747 72 0.0 0.0 0.00 0.00 0.00 81 1016.9
20260504185748 72 0.0 0.0 0.00 0.00 0.00 77 1016.9
20260504184746 72 0.0 0.0 0.00 0.00 0.00 77 1016.9
20260504183748 72 0.0 0.0 0.00 0.00 0.00 76 1016.8
20260504182747 72 0.0 0.0 0.00 0.00 0.00 86 1016.9
20260504181746 72 0.0 0.0 0.00 0.00 0.00 82 1016.9
20260504180746 72 0.0 0.0 0.00 0.00 0.00 84 1017.0
20260504175746 72 0.0 0.0 0.00 0.00 0.00 77 1017.0
20260504174747 72 0.0 0.0 0.00 0.00 0.00 75 1017.2
20260504173747 72 0.0 0.0 0.00 0.00 0.00 77 1017.3
20260504172802 72 0.0 0.0 0.00 0.00 0.00 74 1017.3
20260504171747 72 0.0 0.0 0.00 0.00 0.00 74 1017.4
20260504170746 72 0.0 0.0 0.00 0.00 0.00 72 1017.4
20260504150746 71 0.0 0.0 0.00 0.00 0.00 74 1018.8
20260504140804 70 0.0 0.0 0.00 0.00 0.00 74 1019.8
20260504130746 69 0.0 0.0 0.00 0.00 0.00 72 1020.7